Location: *
(45.1961°N, 1.9694°E)
Time: 18:23:47
(UTC+00:00)

COSMOS 2428 - Pass Details

Date: 25 August 2019
Orbit: 845 x 856 km, 70.9° (Epoch: 16 October)

Event Time Altitude Azimuth Distance (km) Brightness Sun altitude
Rises 23:32:35 0° 335° (NNW) 3,418 6.8 -34.0°
Reaches altitude 10° 23:35:04 10° 338° (NNW) 2,478 5.9 -34.0°
Enters shadow 23:39:02 45° 354° (N) 1,138 3.6 -34.1°
